Location: Isles
(48.9125°N, 2.8272°E)
Time: 15:13:50
(UTC+00:00)

IRIDIUM 103 - Pass Details

Date: 03 February 2023
Orbit: 776 x 779 km, 86.4° (Epoch: 29 March)

Event Time Altitude Azimuth Distance (km) Brightness Sun altitude
Rises 18:47:39 0° 354° (N) 3,275 7.6 -19.7°
Reaches altitude 10° 18:50:01 10° 353° (N) 2,343 6.9 -20.1°
Maximum altitude 18:55:15 76° 269° (W) 807 4.5 -20.9°
Drops below altitude 10° 19:00:27 10° 184° (S) 2,324 6.8 -21.8°
Sets 19:02:47 0° 183° (S) 3,247 7.6 -22.1°
